[[{"header":{"parameterUnit":"m.s-1","parameterCategory":1,"la1":30.2991,"la2":30.254,"lo1":-89.0895,"lo2":-89.0444,"dy":0.0017,"dx":0.0017,"nx":28,"ny":28,"refTime":"2025-11-21T03:00:00:Z","depth":0,"parameterNumber":2,"parameterNumberName":"U-component_of_WINDS"},"data":[0,0,0,0,0,0,0,0,0,0,0,0,0,0,0,0,0,0,0,0,0,0,0,0,0,0,0,0,0,0,0,0,0,0,0,0,0,0,0,0,0,0,0,0,0,0,0,0,0,0,0,0,0,0,0,0,0,0,1.9925,1.9925,0,1.9915,1.9915,1.9914,1.9849,1.9848,1.9846,1.9845,1.9838,1.984,1.9841,0,0,0,0,0,0,0,0,0,0,0,0,0,1.9891,1.9892,1.9925,1.9925,1.9925,1.9915,1.9915,1.9914,1.985,1.9848,1.9846,1.9844,1.9838,1.9839,1.9841,0,0,0,0,0,0,0,0,0,0,0,0,0,1.9896,1.9892,1.9925,1.9891,1.9888,1.9915,1.9915,1.9914,1.985,1.9848,1.9845,1.9843,1.9837,1.9839,1.9841,1.9901,0,0,1.9847,1.9848,0,0,0,0,0,0,0,0,1.9896,1.9897,1.9896,1.9893,1.989,1.9881,1.99,1.991,1.9851,1.9865,1.9845,1.9842,1.9855,1.9855,1.9858,1.9901,1.99,1.9847,1.9849,1.9849,1.985,0,0,0,0,0,0,0,1.9895,1.9897,1.9921,1.9896,1.9892,1.9877,1.9875,1.9902,1.9873,1.9863,1.9858,1.9858,1.9853,1.9857,1.9858,1.99,1.9847,1.9849,1.985,1.9851,1.999,1.9993,0,0,0,0,0,0,1.9899,1.9897,1.9921,1.9921,1.9887,1.988,1.9878,1.9886,1.9873,1.9868,1.986,1.9855,1.9855,1.9856,1.9857,1.9926,1.9849,1.9851,1.9852,1.9988,1.9991,1.9994,0,0,0,0,0,0,1.9899,1.9902,1.9922,1.9908,1.9909,1.9883,1.9893,1.9887,1.9891,1.987,1.9865,1.9869,1.9853,1.9855,1.989,1.9925,1.9852,1.9854,1.9985,1.9989,1.9992,2.0065,0,0,0,0,0,0,1.9898,1.9902,1.9924,1.9909,1.991,1.9954,1.9895,1.9889,1.9894,1.9888,1.9878,1.9874,1.9851,1.9888,1.9892,1.9927,1.9855,1.9982,1.9987,1.9991,2.0059,2.0071,2.008,0,0,0,0,0,1.9897,1.9946,1.9926,1.9929,1.9937,1.9956,1.9957,1.9929,1.9898,1.992,1.9906,1.9874,1.992,1.9892,1.9896,1.9932,1.9979,1.9985,1.9991,2.0055,2.0068,2.008,0,0,0,0,0,0,1.9969,1.9944,1.9921,1.9966,1.9963,1.9945,1.9973,1.9945,1.9952,1.9946,1.9911,1.991,1.995,1.9944,1.9913,1.9989,1.9944,1.9951,1.9991,2.0004,2.0015,2.0016,1.9857,0,0,0,0,0,1.9989,2.0006,1.9984,2.0026,2.0026,1.9999,2.0007,1.9985,1.9982,1.9981,1.997,1.9969,1.9983,1.9993,2.0005,2.0057,2.0055,2.0084,2.0095,2.0103,2.011,2.0137,2.015,2.0012,2.0012,2.0012,0,0,2.0033,2.0021,2.0034,2.004,2.0035,2.0054,1.9999,2.0022,2.0036,1.9985,2.0017,2.0009,2.0005,2.005,2.0069,2.0046,2.0147,2.0111,2.0118,2.012,2.0145,2.0158,2.0169,2.0016,2.0015,2.0015,0,0,2.0122,2.0115,2.0149,2.0145,2.0138,2.012,2.0128,2.0114,2.0106,2.0137,2.0099,2.0115,2.0141,2.014,2.0142,2.0229,2.02,2.0234,2.029,2.0317,2.0328,2.0337,2.0368,2.038,2.0241,2.0241,2.0241,0,2.0178,2.0204,2.017,2.0195,2.0198,2.0151,2.0185,2.0183,2.0182,2.0186,2.016,2.0189,2.0184,2.0227,2.0248,2.0252,2.026,2.0236,2.0328,2.0338,2.0346,2.0376,2.0387,2.0245,2.0244,2.0244,2.0244,0,2.0272,2.0291,2.0319,2.0317,2.0323,2.0353,2.0325,2.0335,2.0312,2.0297,2.033,2.0321,2.033,2.0339,2.0317,2.0379,2.0365,2.0334,2.0289,2.0364,2.0391,2.0402,2.0251,2.0249,2.0248,2.0247,0,0,2.0408,2.0385,2.0396,2.0394,2.0382,2.0396,2.0424,2.0431,2.0441,2.0441,2.0463,2.0485,2.0456,2.0459,2.0437,2.046,2.053,2.0427,2.0426,2.0447,2.0597,2.0621,2.0635,2.051,2.0512,2.0514,2.0598,0,2.0494,2.0538,2.0508,2.0558,2.0574,2.0528,2.0552,2.0548,2.0534,2.0547,2.0532,2.0548,2.0509,2.051,2.0531,2.0517,2.056,2.051,2.0532,2.0533,2.0535,2.0649,2.0674,2.0754,2.0608,2.061,2.0611,0,2.06,2.0603,2.0654,2.0637,2.0643,2.0665,2.0669,2.0681,2.0676,2.0664,2.0667,2.0638,2.0664,2.0619,2.0655,2.0622,2.0629,2.0623,2.0625,2.0627,2.0577,2.0654,2.0779,2.0791,2.0627,2.0626,2.0625,0,2.0695,2.0711,2.0743,2.0743,2.0725,2.0741,2.0735,2.0726,2.0732,2.0735,2.0739,2.0746,2.075,2.0756,2.0731,2.07,2.077,2.0723,2.0762,2.0763,2.078,2.078,2.0908,2.0783,2.0783,2.0783,2.0783,0,2.0794,2.0827,2.0785,2.0806,2.0841,2.0806,2.0843,2.0831,2.0824,2.0841,2.0802,2.082,2.0784,2.0799,2.0779,2.0812,2.0814,2.0806,2.08,2.081,2.0811,2.0815,2.0809,2.0786,2.0785,2.0785,2.0784,0,2.0906,2.0879,2.0912,2.0891,2.0886,2.0914,2.0896,2.0914,2.0897,2.092,2.0923,2.0897,2.0911,2.0885,2.0897,2.0884,2.093,2.0915,2.0932,2.0928,2.0969,2.0966,2.1105,2.1122,2.0986,2.0987,2.0988,0,2.0972,2.0996,2.0977,2.0985,2.098,2.0994,2.0999,2.0965,2.0973,2.0967,2.0986,2.0997,2.1004,2.1029,2.1012,2.102,2.1006,2.1054,2.1008,2.1016,2.1008,2.1007,2.1009,2.1065,2.1066,2.1068,2.1069,0,2.1092,2.1077,2.1085,2.1088,2.1095,2.1097,2.1095,2.1105,2.1069,2.1079,2.1092,2.1097,2.1108,2.112,2.1124,2.1118,2.1088,2.1083,2.1093,2.1104,2.1112,2.1108,2.0959,2.1081,2.1079,2.1079,2.1078,2.1077,2.1183,2.1202,2.1191,2.1201,2.1196,2.1196,2.1211,2.1195,2.1205,2.121,2.119,2.1208,2.1201,2.1203,2.12,2.1214,2.1193,2.1207,2.1211,2.1215,2.1222,2.1109,2.1215,2.1214,2.1214,2.1214,2.1214,0,2.1301,2.1291,2.1301,2.1299,2.1307,2.1276,2.1273,2.1282,2.1298,2.1293,2.13,2.1315,2.1326,2.1308,2.1316,2.1331,2.1317,2.1334,2.1333,2.1332,2.124,2.1231,2.1345,2.1345,2.1345,2.1345,2.1345,2.1345,2.1363,2.1394,2.1377,2.1405,2.1395,2.1411,2.1412,2.1411,2.1407,2.1425,2.1433,2.1421,2.1411,2.1417,2.1426,2.142,2.1425,2.1447,2.1438,2.1352,2.1339,2.1327,2.1318,2.1449,2.1449,2.1529,2.1529,2.153]},{"header":{"parameterUnit":"m.s-1","parameterCategory":1,"la1":30.2991,"la2":30.254,"lo1":-89.0895,"lo2":-89.0444,"dy":0.0017,"dx":0.0017,"nx":28,"ny":28,"refTime":"2025-11-21T03:00:00:Z","depth":0,"parameterNumber":3,"parameterNumberName":"V-component_of_WINDS"},"data":[0,0,0,0,0,0,0,0,0,0,0,0,0,0,0,0,0,0,0,0,0,0,0,0,0,0,0,0,0,0,0,0,0,0,0,0,0,0,0,0,0,0,0,0,0,0,0,0,0,0,0,0,0,0,0,0,0,0,2.1745,2.1746,0,2.1768,2.1769,2.1769,2.1748,2.1747,2.1746,2.1746,2.1766,2.1767,2.1768,0,0,0,0,0,0,0,0,0,0,0,0,0,2.168,2.1681,2.1745,2.1746,2.1746,2.1768,2.1769,2.1769,2.1748,2.1747,2.1746,2.1745,2.1765,2.1767,2.1768,0,0,0,0,0,0,0,0,0,0,0,0,0,2.1706,2.1681,2.1745,2.1738,2.1738,2.1768,2.1769,2.1769,2.1748,2.1747,2.1746,2.1745,2.1765,2.1767,2.1769,2.1806,0,0,2.1775,2.1775,0,0,0,0,0,0,0,0,2.1704,2.1708,2.1739,2.1739,2.1738,2.1754,2.1753,2.1781,2.1749,2.1744,2.1746,2.1744,2.1763,2.1765,2.1772,2.1807,2.1807,2.1775,2.1776,2.1777,2.1777,0,0,0,0,0,0,0,2.1703,2.1707,2.1754,2.1739,2.1739,2.1733,2.1735,2.1758,2.176,2.1745,2.1743,2.1746,2.1762,2.177,2.1772,2.1808,2.1775,2.1776,2.1778,2.1778,2.1875,2.1876,0,0,0,0,0,0,2.1702,2.1706,2.1753,2.1755,2.1718,2.1735,2.1738,2.175,2.176,2.176,2.1747,2.1745,2.1767,2.177,2.1773,2.1817,2.1777,2.1779,2.178,2.1873,2.1875,2.1876,0,0,0,0,0,0,2.1701,2.1707,2.1753,2.173,2.1735,2.1738,2.1752,2.1751,2.1759,2.1762,2.1762,2.1755,2.1766,2.177,2.1798,2.1817,2.1779,2.1781,2.1872,2.1874,2.1876,2.1906,0,0,0,0,0,0,2.1699,2.1706,2.1721,2.1731,2.1737,2.1779,2.1753,2.1753,2.1763,2.176,2.1769,2.1769,2.1765,2.1795,2.18,2.182,2.1783,2.187,2.1873,2.1875,2.1904,2.1909,2.1914,0,0,0,0,0,2.1697,2.1728,2.1722,2.1728,2.1756,2.178,2.1783,2.1779,2.1765,2.1779,2.1781,2.1769,2.1815,2.1798,2.1803,2.1824,2.1869,2.1872,2.1875,2.1901,2.1908,2.1914,0,0,0,0,0,0,2.1719,2.1729,2.1723,2.1758,2.1769,2.1776,2.1795,2.1786,2.18,2.1797,2.179,2.1792,2.1822,2.1826,2.1807,2.186,2.1839,2.1843,2.1857,2.1864,2.1869,2.1868,2.1784,0,0,0,0,0,2.1729,2.1749,2.1756,2.1786,2.1792,2.1792,2.1803,2.1799,2.1809,2.1813,2.1817,2.1826,2.1842,2.1853,2.1868,2.1904,2.1905,2.192,2.1926,2.193,2.1934,2.1953,2.196,2.1887,2.1887,2.1886,0,0,2.1747,2.1755,2.1768,2.1791,2.1798,2.1819,2.1796,2.1818,2.1833,2.1816,2.1843,2.1846,2.1856,2.1888,2.1903,2.1892,2.1954,2.1934,2.1937,2.1939,2.1957,2.1964,2.197,2.1889,2.1888,2.1888,0,0,2.1793,2.1801,2.1827,2.1836,2.1848,2.1849,2.1855,2.1864,2.1866,2.1894,2.1882,2.1898,2.1926,2.1934,2.1942,2.199,2.198,2.1995,2.2023,2.2042,2.2047,2.2052,2.207,2.2077,2.1999,2.1999,2.1999,0,2.1814,2.1845,2.1842,2.1865,2.1875,2.1862,2.1889,2.1897,2.1913,2.192,2.1908,2.1944,2.1949,2.1983,2.1995,2.2001,2.2008,2.1994,2.2047,2.2052,2.2057,2.2074,2.208,2.2001,2.2001,2.2001,2.2,0,2.1871,2.1893,2.1913,2.1931,2.1943,2.1968,2.1967,2.198,2.1975,2.1976,2.2004,2.201,2.2027,2.2035,2.2029,2.2068,2.2061,2.2048,2.2027,2.2066,2.2081,2.2088,2.2004,2.2003,2.2002,2.2002,0,0,2.1931,2.1948,2.1955,2.1963,2.1976,2.1992,2.2016,2.2034,2.2045,2.2056,2.2076,2.21,2.2089,2.2097,2.2093,2.2109,2.2148,2.2094,2.2094,2.2104,2.2191,2.2202,2.2209,2.2141,2.2142,2.2143,2.2191,0,2.1977,2.2021,2.2018,2.2058,2.2078,2.2066,2.2087,2.2097,2.2099,2.2115,2.2116,2.2134,2.2117,2.2122,2.2138,2.214,2.2165,2.2136,2.2159,2.2159,2.2157,2.2217,2.2228,2.2273,2.2197,2.2198,2.2199,0,2.2037,2.2052,2.2095,2.2106,2.2114,2.2133,2.2149,2.2165,2.2175,2.2175,2.2186,2.2178,2.2202,2.2179,2.2211,2.2192,2.22,2.2203,2.2204,2.2206,2.2182,2.2221,2.2287,2.2294,2.2208,2.2207,2.2207,0,2.2077,2.2108,2.2138,2.2145,2.2158,2.2172,2.2178,2.2187,2.2198,2.2211,2.2218,2.2234,2.2243,2.2254,2.2251,2.2235,2.2284,2.2261,2.2284,2.2284,2.2295,2.2295,2.2363,2.23,2.23,2.23,2.23,0,2.2129,2.2155,2.2156,2.2175,2.2204,2.2201,2.2229,2.2233,2.2242,2.226,2.225,2.2267,2.2261,2.2278,2.2275,2.2302,2.2306,2.2306,2.2305,2.2308,2.2308,2.2313,2.231,2.2302,2.2301,2.2301,2.2301,0,2.2178,2.218,2.2212,2.2222,2.2226,2.2247,2.2255,2.2272,2.2273,2.2296,2.2301,2.2303,2.2322,2.232,2.2341,2.2339,2.2373,2.2367,2.237,2.2369,2.2392,2.239,2.2467,2.2477,2.2407,2.2408,2.2408,0,2.2212,2.2232,2.2246,2.2258,2.2265,2.2285,2.2296,2.2293,2.2306,2.2319,2.2335,2.2353,2.2368,2.2398,2.24,2.2416,2.2412,2.2438,2.2414,2.2416,2.2413,2.2412,2.2414,2.2443,2.2443,2.2444,2.2445,0,2.2271,2.2271,2.2289,2.2308,2.2322,2.2336,2.2348,2.2359,2.2357,2.2371,2.2391,2.2403,2.2425,2.2443,2.2458,2.2463,2.2453,2.2452,2.2458,2.2461,2.2462,2.2462,2.2383,2.245,2.245,2.2449,2.2449,2.2449,2.2314,2.2332,2.2344,2.2365,2.2374,2.2387,2.2403,2.2407,2.2425,2.2443,2.244,2.2463,2.2472,2.2492,2.2499,2.2516,2.2506,2.2515,2.2517,2.252,2.2523,2.2459,2.2518,2.2518,2.2518,2.2518,2.2517,0,2.2373,2.2381,2.2399,2.2418,2.2434,2.2426,2.2439,2.2453,2.2473,2.2484,2.2499,2.2522,2.254,2.2544,2.2561,2.2574,2.257,2.2578,2.2578,2.2579,2.253,2.2523,2.2581,2.2581,2.2581,2.2581,2.2581,2.2581,2.2405,2.2436,2.2438,2.2472,2.2479,2.2503,2.2512,2.2523,2.2531,2.2558,2.2574,2.2577,2.2584,2.2602,2.2618,2.2618,2.2625,2.2635,2.2634,2.2589,2.2582,2.2576,2.257,2.2637,2.2637,2.2682,2.2682,2.2683]}]]